Flag for United Kingdom Weather past 2 weeks in Nottingham, England, United Kingdom

Now
57 °F

Sunny.


Feels Like: 55 °F
Forecast: 41 / 57 °F
Wind: 8 mph from Southwest

Location: East Midlands


UV Index: 0 (Low)

Visibility: 10 mi


Pressure: 30.21 "Hg

Humidity: 51%

Dew point: 39 °F

Location of NottinghamLocation

Historic Weather in Nottingham

°F

Nottingham temperature yesterday

Maximum temperature yesterday: 57 °F (at 3:20 PM)
Minimum temperature yesterday: 36 °F (at 4:50 AM)
Average temperature yesterday: 48 °F

Past Weeks' High & Low Weather Summary

 TemperatureHumidityPressure
High61 °F (Apr 6, 3:50 PM)100% (Apr 2, 2:50 AM)30.45 "Hg (Apr 2, 2:50 AM)
Low36 °F (Apr 15, 4:50 AM)36% (Apr 16, 2:20 PM)29.56 "Hg (Apr 3, 4:50 AM)
Average50 °F78%29.99 "Hg
* Reported Apr 1 7:20 PM — Apr 16 7:20 PM, Nottingham, Weather by CustomWeather, © 2014

Note: Actual official high and low records may vary slightly from our data, if they occured in-between our weather recording intervals... More about our weather records

Advertising

Historic Weather Conditions — Data for Previous 24 hours

 ConditionsComfort  
Time TempWeatherWind HumidityBarometerVisibility
7:20 PM
Apr 16
57 °FSunny.10 mph51%30.21 "Hg10 mi
6:50 PM59 °FSunny.10 mph48%30.21 "Hg10 mi
6:20 PM61 °FSunny.13 mph45%30.21 "Hg10 mi
5:50 PM59 °FSunny.13 mph45%30.24 "Hg10 mi
5:20 PM61 °FSunny.13 mph39%30.24 "Hg10 mi
4:50 PM61 °FSunny.12 mph39%30.24 "Hg10 mi
4:20 PM61 °FSunny.14 mph39%30.24 "Hg10 mi
3:20 PM61 °FPassing clouds.14 mph39%30.27 "HgN/A
2:50 PM59 °FSunny.15 mph42%30.30 "Hg10 mi
2:20 PM59 °FSunny.13 mph36%30.30 "Hg10 mi
1:50 PM59 °FSunny.13 mph42%30.30 "Hg10 mi
1:20 PM57 °FSunny.13 mph41%30.30 "Hg10 mi
12:20 PM55 °FPassing clouds.12 mph51%30.33 "HgN/A
11:50 AM54 °FPassing clouds.10 mph54%30.33 "HgN/A
11:20 AM52 °FPassing clouds.10 mph58%30.36 "HgN/A
10:50 AM52 °FPassing clouds.13 mph62%30.36 "HgN/A
10:20 AM50 °FPassing clouds.12 mph67%30.36 "HgN/A
9:50 AM48 °FPassing clouds.13 mph71%30.36 "HgN/A
9:20 AM48 °FSunny.13 mph71%30.36 "Hg10 mi
8:50 AM46 °FPassing clouds.8 mph71%30.39 "HgN/A
8:20 AM45 °FSunny.7 mph76%30.39 "Hg10 mi
7:50 AM41 °FPassing clouds.6 mph81%30.39 "HgN/A
7:20 AM39 °FSunny.7 mph87%30.39 "Hg10 mi
6:50 AM39 °FClear.8 mph87%30.39 "Hg10 mi
6:20 AM39 °FClear.7 mph81%30.39 "Hg10 mi
5:50 AM39 °FPassing clouds.6 mph87%30.39 "HgN/A
5:20 AM39 °FPassing clouds.7 mph87%30.39 "HgN/A
4:50 AM39 °FClear.6 mph87%30.39 "Hg10 mi
4:20 AM39 °FClear.9 mph87%30.39 "Hg10 mi
3:50 AM41 °FClear.10 mph81%30.39 "Hg10 mi
3:20 AM41 °FClear.10 mph81%30.39 "Hg10 mi
2:50 AM41 °FClear.8 mph81%30.39 "Hg10 mi
2:20 AM41 °FClear.9 mph81%30.39 "Hg10 mi
1:50 AM41 °FClear.9 mph81%30.39 "Hg10 mi
11:50 PM
Apr 15
43 °FClear.9 mph76%30.39 "Hg10 mi
11:20 PM43 °FClear.9 mph76%30.39 "Hg10 mi
10:50 PM45 °FClear.9 mph71%30.39 "Hg10 mi
10:20 PM45 °FClear.9 mph71%30.39 "Hg10 mi
9:50 PM46 °FClear.8 mph62%30.39 "Hg10 mi
9:20 PM46 °FClear.7 mph62%30.39 "Hg10 mi
8:50 PM48 °FSunny.8 mph58%30.39 "Hg10 mi
8:20 PM50 °FSunny.9 mph58%30.39 "Hg10 mi
Weather by CustomWeather, © 2014

See weather overview